Regional Weather Roundup
Issued by NWS

Home | Current Version | Previous Version | Graphics & Text | Print | Product List | Glossary On
Versions: 1 2 3 4 5 6 7 8 9 10 11 12 13 14 15 16 17 18 19 20 21 22 23 24 25 26 27 28
000
ASUS45 KSLC 291510
RWRUT

UTAH REGIONAL WEATHER ROUNDUP
NATIONAL WEATHER SERVICE SALT LAKE CITY UT
900 AM MDT WED OCT 29 2014

UTZ001>011-023>025-291600-

NORTHERN UTAH

CITY           SKY/WX    TMP DP  RH WIND       PRES   REMARKS
BRIGHAM CITY   PTSUNNY   34  25  70 N3        30.31R
HILL AFB       MOSUNNY   40  15  36 E14       30.30R WCI  32
LOGAN          CLOUDY    31  25  78 CALM      30.30R
OGDEN          SUNNY     40  17  39 S7        30.29R
PROVO AIRPORT  NOT AVBL
SALT LAKE CITY MOSUNNY   42  27  55 SE7       30.30R
VERNAL         SUNNY     34  22  61 CALM      30.34R
WENDOVER       CLOUDY    37  23  56 NE3       30.30R
HEBER CITY     SUNNY     28  19  69 SE3       30.35R
WEST JORDAN    SUNNY     39  27  60 CALM      30.31R

$$

UTZ012>022-026-027-291600-

SOUTHERN/CENTRAL UTAH

CITY           SKY/WX    TMP DP  RH WIND       PRES   REMARKS
BLANDING       SUNNY     43  19  38 CALM      30.40R
BRYCE CANYON   PTSUNNY   31  16  54 W7        30.40R WCI  24
CEDAR CITY     PTSUNNY   34  17  50 CALM      30.31R
DELTA          PTSUNNY   34  17  49 E3        30.30S
HANKSVILLE       N/A     36  12  38 W3        30.35R
MILFORD        PTSUNNY   33  16  49 SW7       30.31R WCI  27
MOAB/CYNLANDS  SUNNY     40  14  34 SE3       30.32R
PRICE          MOSUNNY   43  11  27 N3        30.33R
ST GEORGE      SUNNY     46  18  31 CALM      30.26R
KANAB            N/A     43  18  36 N12       30.32S

$$

REGIONAL REPORTS     COLORADO/ARIZONA

CITY           SKY/WX    TMP DP  RH WIND       PRES   REMARKS
CRAIG, CO      NOT AVBL
GRAND JUNCTION MOSUNNY   38  16  40 VRB3      30.35R
RIFLE          SUNNY     29  16  58 CALM      30.39R
MONTROSE       SUNNY     36  17  46 S6        30.38R WCI  31
CORTEZ         SUNNY     35  18  49 CALM      30.34S
PAGE, AZ       MOSUNNY   52  20  28 CALM      30.29R
GRAND CANYON   MOSUNNY   36  20  52 CALM      30.36R
KINGMAN        SUNNY     52  29  41 E6        30.20R
FLAGSTAFF      SUNNY     39  30  70 CALM      30.36R

$$

REGIONAL REPORTS    NEVADA/IDAHO/WYOMING

CITY           SKY/WX    TMP DP  RH WIND       PRES   REMARKS
LAS VEGAS, NV  SUNNY     61  21  21 SW8       30.13R
ELY            PTCLDY    29  13  51 S12       30.34R WCI  19
ELKO           MOCLDY    29  14  53 SE3       30.31R
POCATELLO, ID  MOCLDY    34  25  69 CALM      30.24S
BURLEY         CLOUDY    42  30  62 CALM      30.21S
EVANSTON, WY   SUNNY     36  10  34 SW9       30.33R WCI  29
ROCK SPRINGS   MOSUNNY   36  10  34 SW15      30.29R WCI  27

$$



USA.gov is the U.S. government's official web portal to all federal, state and local government web resources and services.